Regional Weather Roundup
Issued by NWS

Home | Current Version | Previous Version | Text Only | Print | Product List | Glossary Off
Versions: 1 2 3 4 5 6 7 8 9 10 11 12 13 14 15 16 17 18 19 20 21 22 23 24 25 26 27 28 29 30 31 32 33 34 35 36 37 38 39 40 41 42 43 44 45 46 47 48 49 50

000
ASUS45 KABQ 011510
RWRNM
NEW MEXICO REGIONAL WEATHER ROUNDUP
NATIONAL WEATHER SERVICE ALBUQUERQUE NM
900 AM MDT TUE SEP 01 2015

NOTE: "FAIR" MEANS FEW OR NO CLOUDS BELOW 12,000 FEET AGL WITH NO
       SIGNIFICANT WEATHER OR OBSTRUCTIONS TO VISION.

      THIS PRODUCT IS RELEASED AS TWO VERSIONS.  ONE VERSION NEAR
      THE TOP OF THE HOUR CONTAINING PRELIMINARY DATA FROM ALBUQUERQUE
      AND OTHER STATIONS.  A FINAL VERSION WITH ADDITIONAL DATA IS
      ISSUED ABOUT 10 MINUTES AFTER THE HOUR.

NMZ501-503-504-510>518-011600-
NORTHWEST PLATEAU/NORTHCENTRAL MOUNTAINS

CITY           SKY/WX    TMP DP  RH WIND       PRES   REMARKS
FARMINGTON     SUNNY     67  47  48 E6        30.21S
LOS ALAMOS     MOSUNNY   67  46  46 NE5       30.32R
SANTA FE       SUNNY     73  46  38 VRB7      30.25R
TAOS           PTSUNNY   63  43  48 N5        30.33S
ANGEL FIRE     FAIR      48  48  99 CALM      30.40S

$$
NMZ402-403-502-505>509-011600-
WESTCENTRAL MOUNTAINS/SOUTHWEST MOUNTAINS

CITY           SKY/WX    TMP DP  RH WIND       PRES   REMARKS
GALLUP         CLOUDY    62  52  69 SE5       30.29S
GRANTS         CLOUDY    62  54  76 CALM      30.31S
SILVER CITY      N/A     70  52  52 N3        30.21S

$$
NMZ407-409-411-412-011600-
SOUTHERN DESERTS

CITY           SKY/WX    TMP DP  RH WIND       PRES   REMARKS
DEMING         PTSUNNY   71  58  63 SW5       30.13S
LAS CRUCES     SUNNY     77  51  39 E5        30.14R
HOLLOMAN AFB   MOSUNNY   78  49  35 W2        30.07R
ALAMOGORDO     MOSUNNY   75  48  38 SE3       30.10R
T OR C         SUNNY     77  49  37 NW5       30.15R

$$
NMZ519>523-011600-
CENTRAL VALLEYS/CENTRAL HIGHLANDS

CITY           SKY/WX    TMP DP  RH WIND       PRES   REMARKS
ALBUQUERQUE    MOSUNNY   73  48  41 S5        30.21R
DOUBLE EAGLE   PTSUNNY   72  48  43 CALM      30.24R
MORIARTY ARPT  FAIR      68  50  51 CALM      30.26R
CLINES CORNERS SUNNY     68  47  46 NW12      30.27S
BELEN          FAIR      73  48  41 E6        30.20R
SOCORRO        FAIR      72  50  44 N6        30.17S

$$
NMZ524>526-539-540-011600-
SOUTHCENTRAL MOUNTAINS

CITY           SKY/WX    TMP DP  RH WIND       PRES   REMARKS
RUIDOSO        SUNNY     70  46  43 MISG      30.30S

$$
NMZ527>531-011600-
NORTHEAST HIGHLANDS/NORTHEAST PLAINS

CITY           SKY/WX    TMP DP  RH WIND       PRES   REMARKS
LAS VEGAS      SUNNY     69  47  45 N5        30.27R
RATON          MOSUNNY   67  50  54 NE7       30.21S
CLAYTON        SUNNY     74  55  51 VRB3      30.12S

$$
NMZ532>537-011600-
EASTCENTRAL PLAINS

CITY           SKY/WX    TMP DP  RH WIND       PRES   REMARKS
TUCUMCARI      SUNNY     79  52  38 SW14      30.07R
CANNON AFB     SUNNY     76  56  49 SW14      30.12R
CLOVIS AIRPORT SUNNY     75  54  46 S16       30.13R

$$
NMZ028-029-538-011600-
SOUTHEAST PLAINS

CITY           SKY/WX    TMP DP  RH WIND       PRES   REMARKS
ROSWELL        SUNNY     76  55  48 S14       30.07S
ARTESIA        SUNNY     75  57  53 S16       30.08R
CARLSBAD       SUNNY     76  56  49 SE8       30.06R
HOBBS          SUNNY     75  59  57 S15       30.10


$$



USA.gov is the U.S. government's official web portal to all federal, state and local government web resources and services.